Flag for Canada Weather past 2 weeks in New Westminster, British Columbia, Canada

Now
45 °F

Cool.


Feels Like: 41 °F
Forecast: 41 / 47 °F
Wind: 8 mph from Northeast

Location: P. Meadows Coastal Station

Current Time: Dec 18, 2014 at 12:38:22 PM

Latest Report: Dec 18, 2014 at 12:00 PM


Visibility: N/A

Pressure: 29.86 "Hg

Humidity: 93%

Dew point: 43 °F

Location of New WestminsterLocation

Historic Weather in New Westminster — Graph

°F

New Westminster temperature yesterday

Maximum temperature yesterday: 46 °F (at 2:00 PM)
Minimum temperature yesterday: 40 °F (at 3:00 AM)
Average temperature yesterday: 42 °F

Past Weeks' High & Low Weather Summary

 TemperatureHumidityPressure
High61 °F (Dec 9, 9:00 AM)100% (Dec 4, 12:00 AM)30.26 "Hg (Dec 4, 12:00 AM)
Low25 °F (Dec 3, 11:00 PM)62% (Dec 11, 11:00 PM)29.18 "Hg (Dec 11, 5:00 PM)
Average43 °F92%29.86 "Hg
* Reported Dec 3 11:00 AM — Dec 18 11:00 AM, New Westminster, Weather by CustomWeather, © 2014

Note: Actual official high and low records may vary slightly from our data, if they occured in-between our weather recording intervals... More about our weather records

Advertising

New Westminster weather history for previous 24 hours

 ConditionsComfort  
Time TempWeatherWind HumidityBarometerVisibility
11:00 AM
Dec 18
44 °FQuite cool.7 mph96%29.90 "HgN/A
10:00 AM42 °FQuite cool.2 mph100%29.92 "HgN/A
9:00 AM43 °FQuite cool.3 mph98%29.92 "HgN/A
8:00 AM43 °FQuite cool.2 mph98%29.91 "HgN/A
7:00 AM43 °FQuite cool.1 mph98%29.93 "HgN/A
6:00 AM43 °FQuite cool.1 mph98%29.93 "HgN/A
5:00 AM43 °FQuite cool.No wind99%29.92 "HgN/A
4:00 AM43 °FQuite cool.2 mph99%29.92 "HgN/A
3:00 AM42 °FQuite cool.No wind99%29.93 "HgN/A
2:00 AM43 °FQuite cool.No wind99%29.93 "HgN/A
1:00 AM43 °FQuite cool.No wind98%29.92 "HgN/A
12:00 AM43 °FQuite cool.No wind98%29.92 "HgN/A
11:00 PM
Dec 17
43 °FQuite cool.No wind99%29.92 "HgN/A
10:00 PM43 °FQuite cool.No wind98%29.91 "HgN/A
9:00 PM43 °FQuite cool.1 mph98%29.91 "HgN/A
8:00 PM43 °FQuite cool.2 mph98%29.90 "HgN/A
7:00 PM43 °FQuite cool.1 mph97%29.90 "HgN/A
6:00 PM44 °FQuite cool.1 mph96%29.89 "HgN/A
5:00 PM44 °FQuite cool.No wind96%29.88 "HgN/A
4:00 PM45 °FCool.1 mph90%29.87 "HgN/A
3:00 PM45 °FCool.3 mph87%29.86 "HgN/A
2:00 PM46 °FCool.3 mph84%29.85 "HgN/A
1:00 PM44 °FQuite cool.1 mph95%29.84 "HgN/A
12:00 PM44 °FQuite cool.3 mph92%29.85 "HgN/A
Weather by CustomWeather, © 2014

See weather overviewHow to use our weather pages